Weather History for OIFS - October, 2013

Change the Weather History Date:

Thursday, October 17, 2013

  Actual Average Record
Temperature  
Mean Temperature 50 °F -  
Max Temperature 71 °F - - ()
Min Temperature 30 °F - - ()
Degree Days  
Heating Degree Days 14    
Moisture  
Dew Point 18 °F    
Average Humidity 30    
Maximum Humidity 60    
Minimum Humidity 6    
Precipitation  
Precipitation 0.00 in - - ()
Sea Level Pressure  
Sea Level Pressure 30.25 in    
Wind  
Wind Speed 3 mph ()    
Max Wind Speed 9 mph    
Max Gust Speed -    
Visibility 6.1 miles    
Events      
T = Trace of Precipitation, MM = Missing Value Source: Averaged Metar Reports

Daily Weather History Graph

Daily Weather History Graph

Search for Another Location

Airport or City:

Trip Planner

Search our weather history database for the weather conditions in past years. The results will help you decide how hot, cold, wet, or windy it might be!

Date:

Astronomy

Oct. 17, 2013 Rise Set
Actual Time 6:11 AM IRST 5:31 PM IRST
Civil Twilight 5:46 AM IRST 5:56 PM IRST
Nautical Twilight 5:18 AM IRST 6:25 PM IRST
Astronomical Twilight 4:49 AM IRST 6:53 PM IRST
Moon 4:29 PM IRST (10/17) 4:23 AM IRST (10/17)
Length of Visible Light 12h 09m
Length of Day
11h 20m
Waxing Gibbous, 97% of the Moon is Illuminated
Oct 17
Waxing Gibbous
Oct 19
Full
Oct 27
Last Quarter
Nov 3
New
Nov 10
First Quarter

Hourly Weather History & Observations

Time (IRST) Temp. Windchill Dew Point Humidity Pressure Visibility Wind Dir Wind Speed Gust Speed Precip Events Conditions
12:30 AM 41.0 °F 36.4 °F 19.4 °F 42% 30.27 in - NNW 6.9 mph - N/A   Clear
1:30 AM 39.2 °F 34.2 °F 19.4 °F 45% 30.27 in - NW 6.9 mph - N/A   Clear
2:30 AM 37.4 °F - 17.6 °F 45% 30.27 in - Calm Calm - N/A   Clear
3:30 AM 34 °F - 17 °F 36% 30.05 in 6 mi Calm Calm - -  
3:30 AM 33.8 °F - 17.6 °F 52% 30.27 in - Calm Calm - N/A   Clear
4:30 AM 32.0 °F - 15.8 °F 51% 30.27 in - Calm Calm - N/A   Clear
5:30 AM 30.2 °F - 17.6 °F 60% 30.30 in - Calm Calm - N/A   Clear
6:30 AM 30.2 °F - 17.6 °F 60% 30.30 in - Calm Calm - N/A   Clear
7:30 AM 37.4 °F - 19.4 °F 48% 30.30 in - Calm Calm - N/A   Clear
8:30 AM 48.2 °F - 23.0 °F 37% 30.33 in - Calm Calm - N/A   Clear
9:30 AM 52 °F - 23 °F 20% 30.15 in 6 mi South 4.5 mph - -  
9:30 AM 51.8 °F - 23.0 °F 33% 30.36 in - South 4.6 mph - N/A   Clear
10:30 AM 59.0 °F - 26.6 °F 29% 30.33 in - Calm Calm - N/A   Clear
11:30 AM 62.6 °F - 26.6 °F 26% 30.30 in - Calm Calm - N/A   Clear
12:30 PM 66.2 °F - 21.2 °F 18% 30.27 in - East 4.6 mph - N/A   Clear
1:30 PM 69.8 °F - 21.2 °F 16% 30.24 in - SW 9.2 mph - N/A   Clear
2:30 PM 71.6 °F - 19.4 °F 14% 30.24 in - South 9.2 mph - N/A   Clear
3:30 PM 71 °F - 17 °F 6% 29.99 in 6 mi SSW 8.9 mph - -   Clear
3:30 PM 71.6 °F - 17.6 °F 13% 30.21 in - SSW 9.2 mph - N/A   Clear
4:30 PM 71.6 °F - 15.8 °F 12% 30.21 in - Calm Calm - N/A   Clear
5:30 PM 64.4 °F - 15.8 °F 15% 30.24 in 6.2 mi WSW 6.9 mph - N/A   Scattered Clouds
6:30 PM 57.2 °F - 14.0 °F 18% 30.24 in 6.2 mi West 6.9 mph - N/A   Scattered Clouds
7:30 PM 53.6 °F - 15.8 °F 22% 30.24 in - East 4.6 mph - N/A   Clear
8:30 PM 51.8 °F - 17.6 °F 26% 30.27 in - Calm Calm - N/A   Clear
9:30 PM 45 °F - 13 °F 15% 30.11 in 6 mi Calm Calm - -  
9:30 PM 44.6 °F - 12.2 °F 27% 30.30 in - Calm Calm - N/A   Clear
10:30 PM 46.4 °F 41.9 °F 15.8 °F 29% 30.30 in - NNW 9.2 mph - N/A   Clear
11:30 PM 37.4 °F - 10.4 °F 33% 30.30 in - Calm Calm - N/A   Clear